Location: Bittelbronn
(48.4454°N, 8.5870°E)
Time: 01:32:56
(UTC+00:00)

ACS3 Solar Sail - Visible Passes

Search period start: 14 July 2024 00:00
Search period end: 24 July 2024 00:00
Orbit: 992 x 1023 km, 97.4° (Epoch: 13 July)

Date Brightness Start Highest point End Pass type
(mag) Time Alt. Az. Time Alt. Az. Time Alt. Az.
14 Jul 5.1 19:59:58 10° SSE 20:06:03 60° ENE 20:12:10 10° N visible
14 Jul 6.5 21:45:26 10° SW 21:50:35 27° W 21:55:46 10° NNW visible
15 Jul 5.0 20:34:12 10° S 20:40:25 81° WSW 20:46:42 10° NNW visible
15 Jul 7.1 22:22:15 10° WSW 22:25:32 15° W 22:28:52 10° NW visible
16 Jul 5.7 21:09:03 10° SSW 21:14:58 46° W 21:20:58 10° NNW visible
17 Jul 5.0 19:59:05 10° SSE 20:05:10 61° ENE 20:11:20 10° N visible
17 Jul 6.5 21:44:39 10° SW 21:49:44 26° W 21:54:52 10° NNW visible
18 Jul 5.0 20:33:20 10° S 20:39:33 79° WSW 20:45:50 10° NNW visible
18 Jul 7.1 22:21:33 10° WSW 22:24:42 14° W 22:27:53 10° NW visible
19 Jul 5.7 21:08:12 10° SSW 21:14:06 45° W 21:20:06 10° NNW visible
20 Jul 5.0 19:58:11 10° SSE 20:04:17 63° ENE 20:10:29 10° N visible
20 Jul 6.6 21:43:51 10° SW 21:48:53 25° W 21:53:58 10° NW visible
21 Jul 5.0 20:32:27 10° S 20:38:41 77° WSW 20:44:58 10° NNW visible
21 Jul 7.1 22:20:51 10° WSW 22:23:52 14° W 22:26:54 10° NW visible
22 Jul 5.8 21:07:22 10° SSW 21:13:15 44° W 21:19:14 10° NNW visible
23 Jul 5.0 19:57:17 10° SSE 20:03:25 65° ENE 20:09:38 10° N visible
23 Jul 6.6 21:43:04 10° SW 21:48:02 25° W 21:53:04 10° NW visible
